Dewpoint
-13 -11 -5 -4 -3 2 4 9 14 15 14 15 14 15 14 13 14 15 8 12 11 10 9 9 10 11 12 13 13 12 14 13 12 14 14 14 14 12 12 13 14 13 11 13
-10 -11 -10 -7 -5 -0 -0 2 13 14 12 10 14 14 14 13 14 15 12 10 9 12 11 9 10 11 12 13 12 13 14 13 13 13 14 13 14 14 14 13 14 14 12 13
-9 -9 -13 -12 -10 -5 0 1 4 13 11 9 10 10 14 14 12 14 12 7 12 12 11 10 10 11 11 13 12 14 14 14 13 13 14 14 15 15 14 14 14 13 14 14
-9 -12 -10 -11 -5 -3 1 -2 -2 12 12 9 10 14 10 14 15 13 13 11 10 10 12 11 10 11 11 12 12 13 14 14 13 15 16 14 14 14 12 14 14 14 14 13
-5 -8 -6 -5 -3 -3 -2 -4 -2 1 3 3 9 12 11 13 16 15 12 13 12 12 12 11 11 10 11 11 12 11 12 14 14 15 16 14 14 15 14 15 14 14 13 14
-7 -8 -6 -6 -6 -6 -6 -5 -5 -2 2 7 5 12 11 14 16 15 13 13 12 12 10 13 12 11 11 11 12 12 12 11 13 14 15 15 15 15 14 15 15 14 15 13
-5 -5 -7 -7 -7 -7 -7 -5 0 4 4 8 4 9 13 10 14 14 13 13 12 12 11 13 12 12 12 12 13 13 13 13 12 13 14 15 15 14 15 14 14 14 13 14
-1 -3 -6 -8 -7 -4 -4 -5 -1 4 8 8 5 12 13 11 11 14 14 13 13 12 12 12 11 11 13 12 13 13 13 12 11 10 12 14 15 13 14 14 14 15 14 15
1 0 -8 -8 -9 -9 -7 -1 -3 -2 -2 2 7 11 9 7 9 11 13 12 11 13 12 11 11 12 12 12 13 13 12 13 12 11 11 11 13 14 14 15 14 15 15 15
-1 1 -6 -7 -7 -6 -6 -3 5 6 5 8 12 14 14 10 12 12 13 13 12 12 12 11 12 11 12 12 13 13 13 13 13 13 11 12 12 13 15 16 16 15 15 15
-2 -0 1 -4 -2 -1 -1 1 1 3 5 9 10 13 9 10 8 12 13 13 12 13 12 13 12 11 11 13 14 13 13 13 14 13 11 12 13 13 14 15 15 15 15 15
-3 -3 2 0 -3 -4 -2 0 2 6 6 8 9 11 7 8 10 11 12 9 9 9 13 13 14 13 13 13 14 15 13 13 14 14 12 11 13 13 13 14 15 14 14 15
-3 1 2 -1 -5 -5 -1 -1 2 3 4 9 9 11 7 6 7 10 12 13 12 11 10 12 12 12 12 13 15 15 15 14 13 14 11 13 15 15 13 13 13 12 13 14
-5 -2 1 1 -2 -5 -4 -5 -4 2 5 5 7 7 8 8 12 13 13 11 9 10 8 9 11 12 13 13 13 14 16 16 14 14 13 15 15 15 15 14 15 15 15 16
-6 -2 -3 -4 -6 -4 -4 -5 -5 -5 3 5 4 6 11 11 9 10 14 14 13 12 13 14 15 15 15 13 13 13 14 16 16 15 14 13 16 15 15 15 15 17 16 15
-5 -1 0 3 -1 -3 -4 -5 -6 -5 0 4 4 9 12 10 8 9 15 15 15 15 14 12 14 14 15 14 15 13 13 16 15 16 15 14 15 16 14 15 15 14 14 14
2 2 5 5 3 1 1 4 3 2 3 4 5 7 12 10 9 13 14 14 14 15 10 10 13 14 14 14 15 15 14 13 12 14 17 14 15 15 15 15 15 15 15 15
1 0 3 5 4 7 1 2 2 3 2 2 3 12 12 11 11 13 14 15 14 13 10 8 9 8 11 13 15 15 14 14 14 13 17 15 15 15 16 16 15 14 14 14
-4 4 3 4 5 3 2 5 4 5 5 5 4 11 12 13 13 13 13 13 13 12 11 10 9 8 9 10 13 15 15 14 14 13 16 16 16 16 16 15 15 15 15 16
-3 1 3 3 7 7 4 5 5 5 8 8 9 10 12 13 11 12 13 12 14 13 13 10 11 11 10 11 13 14 15 15 16 15 15 15 13 16 16 16 16 15 15 14
3 4 3 4 5 4 5 5 6 9 10 8 10 11 10 11 13 13 13 12 12 13 13 12 11 11 11 9 12 12 14 15 15 15 16 16 16 15 15 13 14 14 14 15
4 7 7 7 8 10 7 6 8 9 10 8 8 11 12 9 10 13 13 12 12 12 13 12 13 13 11 14 13 12 12 14 14 13 14 14 14 13 13 11 11 12 13 12
4 5 8 7 10 8 4 5 5 5 9 10 7 7 9 12 13 13 12 12 12 12 13 13 13 13 13 14 14 12 13 12 13 13 14 13 14 11 10 10 13 12 12 11
8 7 8 8 8 7 4 5 6 10 10 11 9 7 8 9 9 12 12 12 12 12 12 12 13 13 13 13 13 13 13 14 13 14 13 11 11 12 12 13 11 11 10 11
10 6 8 7 8 7 7 10 10 9 10 6 8 12 12 12 12 12 12 12 11 11 10 11 12 12 12 13 13 13 13 13 13 13 12 13 12 13 13 12 12 12 12 12
7 7 8 9 7 7 7 9 9 9 5 6 11 12 11 12 12 12 12 12 11 11 9 7 9 8 8 8 11 12 13 13 13 13 12 12 12 11 12 12 12 12 12 12
Wind_Speed
16 3 7 13 14 14 16 7 12 13 11 13 14 9 13 25 21 17 28 17 12 20 28 26 29 28 27 26 20 19 20 17 20 20 18 17 11 12 12 10 10 6 11 9
3 9 13 15 17 13 11 1 10 10 12 7 9 12 16 20 26 31 35 31 17 17 21 29 33 33 28 27 21 21 20 18 18 19 17 20 13 11 11 7 10 8 8 12
9 12 16 15 12 11 3 3 3 16 7 5 2 4 11 18 22 25 31 32 21 19 21 28 37 34 29 27 27 24 23 20 19 20 18 18 15 12 12 14 8 14 9 8
9 15 12 13 8 4 2 7 10 13 7 3 8 4 7 14 18 19 24 30 31 26 25 28 35 38 34 30 26 31 28 24 22 23 19 19 18 19 14 12 9 14 12 8
8 10 3 1 5 4 9 6 6 5 4 2 4 1 7 16 15 17 23 26 30 27 31 33 32 40 37 32 28 31 34 28 26 25 20 19 17 11 14 14 12 11 12 12
9 18 5 5 7 8 7 6 4 4 1 2 11 8 6 10 20 18 22 36 38 35 39 27 36 41 41 36 30 30 32 30 24 31 25 22 23 19 14 18 14 14 12 8
7 10 3 7 6 4 6 5 3 3 1 6 9 1 3 4 3 21 26 28 35 28 32 30 27 38 43 40 35 32 30 27 26 32 30 26 24 22 18 20 17 16 11 12
8 6 10 6 4 4 8 9 5 4 2 5 11 5 3 5 11 19 33 35 30 36 34 30 42 29 42 42 38 33 30 29 25 28 30 30 25 27 20 20 16 16 16 12
4 7 13 12 6 5 6 4 10 5 5 2 3 3 7 3 6 11 19 27 29 31 39 31 31 34 39 44 41 36 31 31 27 24 28 30 28 26 21 14 15 16 13 13
5 3 9 9 8 7 8 3 3 4 0 3 4 3 3 4 5 9 14 5 16 30 34 37 29 38 38 45 44 40 34 30 29 21 28 30 31 29 22 21 18 20 19 18
5 1 8 8 5 9 3 4 3 3 3 2 1 3 6 7 1 7 6 8 17 23 20 13 25 31 40 39 45 45 38 33 33 25 24 31 32 30 26 26 22 21 21 19
4 2 3 5 8 6 8 9 7 5 6 3 4 4 1 4 3 13 11 6 9 13 11 23 26 29 25 34 41 42 39 36 34 27 22 30 26 28 28 30 23 22 18 17
5 4 4 8 6 7 4 3 2 1 1 5 5 4 1 10 3 13 19 15 12 10 13 11 21 16 33 32 32 33 36 40 34 29 24 28 26 25 25 24 20 22 19 14
3 1 2 5 5 7 7 9 5 5 2 2 2 3 7 4 9 10 7 8 12 14 11 8 10 19 23 36 38 41 34 37 38 32 28 30 29 27 25 21 20 18 16 15
3 2 3 8 11 10 9 9 10 6 4 5 3 1 4 2 1 8 15 17 11 5 1 8 9 13 21 28 36 40 39 34 33 34 30 34 35 30 27 24 21 23 21 15
6 3 5 7 9 10 11 11 9 7 4 8 7 2 3 2 5 9 11 11 14 5 12 10 7 10 17 20 31 39 49 38 21 9 36 31 34 32 30 27 25 25 21 17
6 4 0 6 6 8 6 6 8 5 5 0 3 5 7 6 3 5 5 4 5 4 6 5 4 3 5 15 14 22 30 34 40 36 35 32 34 29 28 26 26 25 21 20
4 2 0 3 6 6 7 4 6 6 4 8 9 7 5 8 11 7 3 5 4 4 3 4 5 5 23 20 11 10 15 26 41 30 38 34 32 28 27 26 25 22 21 20
6 5 3 4 4 8 4 4 3 5 5 8 3 7 13 15 8 3 3 3 4 9 5 3 6 7 6 16 16 9 10 12 24 23 20 31 20 23 23 23 23 22 20 16
5 5 5 1 2 5 3 6 10 5 3 2 9 3 13 14 4 1 8 7 7 7 4 5 5 3 2 2 8 11 6 11 11 15 17 23 24 21 18 15 16 15 12 13
1 1 4 4 5 6 3 9 6 2 4 7 11 9 7 7 4 13 10 4 4 7 7 5 8 7 3 4 2 8 8 9 14 20 22 24 24 20 16 13 7 7 9 9
4 5 3 2 2 2 5 3 2 6 5 8 11 16 16 16 10 12 11 6 2 2 5 6 9 9 6 6 10 2 4 7 11 14 14 13 16 17 15 16 14 17 8 8
2 6 4 5 4 6 12 9 17 7 9 6 11 3 19 20 14 9 12 10 8 6 5 2 1 4 5 7 10 8 6 7 6 7 10 10 17 21 19 18 10 11 13 12
6 11 2 3 5 7 14 5 12 21 24 17 7 6 7 19 19 13 14 14 14 14 14 12 11 11 13 9 7 16 8 6 8 6 21 14 16 16 13 13 16 17 14 13
3 3 2 5 1 3 7 22 26 23 18 23 13 13 15 26 25 20 17 14 12 15 15 17 20 22 22 17 17 15 14 13 15 19 20 19 15 12 15 14 13 10 9 8
7 5 4 5 10 5 0 11 11 13 7 13 27 23 23 23 22 18 17 16 13 13 14 16 18 23 26 26 27 22 21 19 22 20 18 17 16 16 14 11 13 14 12 11
Wind_Direction
210 172 222 242 250 256 277 113 123 155 176 164 195 171 194 180 199 227 231 229 216 182 170 172 171 177 178 182 187 186 188 178 178 179 169 177 180 193 191 160 167 179 170 193
241 223 234 237 246 252 262 271 151 155 174 207 174 197 186 192 197 198 214 232 210 183 192 178 174 180 185 189 190 189 185 184 186 190 183 189 194 183 179 187 195 198 176 175
214 242 221 247 265 263 326 6 297 139 171 171 243 299 176 197 199 191 204 218 208 203 193 188 175 183 189 194 183 181 190 193 186 185 194 183 187 192 184 186 175 167 172 179
221 257 267 222 268 188 339 250 263 151 139 200 150 256 252 179 187 194 201 215 230 219 195 199 179 180 190 196 192 191 193 196 182 193 202 202 192 189 212 198 162 179 184 185
247 244 198 302 287 313 251 309 44 37 34 62 216 142 253 164 186 194 190 196 221 227 204 196 198 189 194 197 199 195 200 202 196 199 192 194 197 182 198 196 193 190 183 197
253 302 136 188 258 263 286 10 346 24 52 314 238 177 288 181 191 180 184 199 207 209 210 228 212 195 195 198 198 195 201 199 198 200 196 197 195 193 191 185 183 197 200 217
250 248 190 203 240 212 55 21 337 326 242 224 247 66 179 64 95 173 185 201 214 213 211 198 207 189 194 194 196 196 198 198 201 202 202 203 199 202 199 207 197 209 205 190
211 248 187 181 222 183 180 179 184 225 95 261 299 157 287 89 108 160 181 199 206 216 214 199 195 201 195 196 197 199 201 199 201 206 208 205 204 206 208 201 191 196 207 203
347 331 143 163 177 194 270 229 227 246 276 321 157 71 36 45 63 169 212 208 215 193 206 209 199 208 194 196 200 201 204 205 201 206 210 210 207 209 205 199 204 205 209 212
307 6 167 167 172 196 181 251 9 344 300 288 75 73 162 348 34 40 33 99 213 198 204 209 211 201 204 205 202 206 207 208 203 209 212 212 209 206 195 203 211 205 206 213
347 304 297 99 161 209 227 259 208 178 169 159 267 257 199 217 309 99 64 100 144 168 208 246 203 201 202 202 202 207 205 209 208 206 211 210 209 207 206 206 208 205 213 215
37 306 320 287 317 256 198 203 170 133 272 123 123 282 212 240 65 135 129 129 196 206 161 197 223 198 206 201 199 203 211 209 213 213 216 206 206 210 212 213 217 219 224 226
345 327 342 327 339 2 325 346 327 238 146 173 132 231 61 333 303 172 158 158 189 225 231 208 218 225 224 221 202 202 213 216 212 210 218 206 206 208 210 209 209 215 227 238
72 260 201 225 275 279 304 316 308 164 113 295 144 17 19 11 75 355 279 211 191 207 225 254 259 239 232 225 218 212 216 216 212 209 211 210 212 212 215 213 213 215 224 229
114 206 286 278 270 288 297 290 294 294 177 157 265 316 198 296 67 66 36 344 276 190 238 335 305 259 253 241 225 219 218 230 206 213 208 209 212 212 214 217 213 217 227 232
182 243 236 277 290 270 273 273 280 301 43 37 14 161 178 186 53 41 23 24 30 82 44 19 284 281 277 261 245 236 232 222 230 246 214 210 214 209 211 212 220 225 231 237
181 173 343 254 294 331 334 25 49 40 53 173 246 220 181 193 220 96 92 77 60 19 30 28 41 63 329 279 277 232 226 229 255 272 220 203 207 208 211 214 217 221 223 224
151 140 96 280 333 298 236 101 87 63 356 354 334 129 184 206 184 178 183 155 134 131 63 16 327 314 29 3 282 251 245 219 222 274 211 193 195 199 203 209 221 224 227 234
187 157 211 169 238 275 298 37 46 87 314 324 298 143 165 174 170 204 178 178 142 158 142 48 350 329 338 334 330 299 235 230 215 228 208 171 181 201 207 214 218 220 222 222
197 153 143 213 238 266 247 136 123 166 254 54 88 66 173 166 246 179 174 148 148 207 239 125 97 54 142 100 314 359 271 203 182 201 216 225 208 199 207 197 199 206 214 224
126 298 205 221 218 253 109 102 146 112 243 131 104 131 161 160 162 144 166 162 196 227 221 186 213 189 210 45 355 18 42 109 164 177 160 160 173 176 163 123 123 165 191 194
175 173 221 274 263 181 46 143 162 220 132 118 138 111 123 139 132 141 128 125 158 267 226 220 251 260 222 197 157 141 58 74 75 89 123 134 130 131 130 127 97 99 112 118
240 182 185 153 230 229 261 251 290 287 128 131 134 149 180 137 129 132 125 134 124 123 115 147 268 103 152 182 176 121 215 137 109 105 108 141 121 109 118 104 121 112 115 119
354 32 66 125 227 227 257 337 31 71 67 61 64 93 141 183 184 170 142 128 121 112 99 99 100 106 106 114 144 130 163 211 193 174 128 123 133 141 126 128 122 124 116 114
227 28 13 288 18 67 86 80 88 83 97 99 56 168 150 145 156 155 148 141 121 111 107 103 98 94 92 105 107 112 122 126 130 137 145 151 151 146 128 128 125 121 124 135
207 199 140 240 162 169 208 89 72 59 54 143 141 177 149 142 144 145 141 147 147 135 124 110 108 103 98 95 98 98 106 116 119 119 121 121 121 119 123 128 121 114 113 113
Height
1492 1501 1507 1496 1485 1481 1478 1485 1498 1500 1498 1508 1509 1512 1513 1516 1522 1519 1515 1521 1524 1527 1526 1529 1533 1538 1544 1548 1551 1554 1556 1561 1564 1565 1567 1569 1572 1575 1576 1577 1580 1583 1586 1587
1496 1503 1486 1481 1478 1477 1476 1479 1492 1492 1491 1496 1503 1504 1502 1509 1510 1513 1513 1514 1520 1525 1529 1529 1529 1534 1538 1544 1547 1551 1555 1559 1562 1565 1567 1569 1571 1573 1575 1576 1580 1582 1585 1587
1495 1483 1478 1478 1478 1479 1476 1482 1484 1493 1489 1488 1493 1503 1498 1500 1506 1510 1511 1510 1517 1523 1527 1529 1526 1531 1536 1540 1544 1546 1553 1557 1560 1563 1565 1566 1569 1571 1573 1576 1578 1581 1584 1587
1484 1471 1472 1476 1478 1475 1488 1474 1474 1485 1498 1518 1495 1533 1496 1493 1500 1502 1507 1508 1510 1518 1523 1527 1527 1526 1532 1535 1541 1543 1547 1554 1557 1560 1563 1564 1567 1571 1572 1575 1577 1580 1583 1586
1482 1474 1471 1475 1476 1472 1485 1474 1477 1480 1492 1495 1501 1519 1496 1481 1499 1498 1500 1506 1509 1514 1520 1522 1525 1523 1527 1532 1536 1541 1543 1548 1554 1557 1560 1562 1566 1569 1571 1574 1576 1579 1582 1585
1472 1469 1467 1472 1472 1473 1471 1477 1478 1482 1498 1529 1502 1508 1501 1492 1482 1490 1495 1491 1493 1505 1513 1519 1521 1521 1524 1528 1533 1537 1541 1544 1548 1552 1556 1559 1563 1567 1568 1571 1574 1577 1579 1582
1475 1472 1466 1469 1477 1472 1476 1494 1530 1533 1531 1532 1486 1493 1493 1477 1474 1479 1485 1489 1490 1493 1506 1513 1519 1520 1519 1523 1529 1532 1535 1540 1542 1547 1551 1555 1559 1563 1566 1569 1572 1574 1576 1578
1493 1498 1470 1466 1473 1481 1485 1496 1528 1530 1523 1515 1480 1504 1497 1479 1476 1482 1482 1484 1490 1492 1494 1502 1512 1516 1516 1519 1523 1528 1530 1534 1538 1542 1546 1550 1555 1558 1563 1567 1570 1573 1574 1575
1484 1474 1456 1463 1466 1472 1484 1497 1481 1502 1495 1510 1496 1495 1484 1478 1481 1483 1485 1483 1487 1488 1493 1497 1503 1512 1511 1516 1518 1523 1526 1530 1533 1537 1541 1545 1549 1554 1558 1563 1567 1571 1573 1575
1469 1485 1460 1460 1463 1467 1475 1472 1500 1502 1519 1521 1507 1504 1510 1491 1486 1481 1482 1484 1485 1487 1492 1495 1500 1505 1507 1510 1514 1518 1522 1525 1528 1532 1536 1540 1544 1549 1554 1558 1562 1567 1570 1572
1467 1477 1477 1462 1472 1479 1479 1485 1482 1489 1499 1521 1525 1518 1486 1488 1483 1487 1484 1483 1481 1485 1492 1499 1500 1501 1506 1509 1512 1515 1518 1523 1527 1528 1531 1535 1539 1544 1549 1552 1556 1561 1565 1568
1469 1476 1493 1479 1462 1455 1461 1472 1478 1509 1507 1504 1514 1516 1480 1483 1484 1486 1483 1483 1485 1486 1489 1491 1501 1498 1503 1508 1509 1514 1517 1518 1523 1526 1528 1532 1537 1541 1544 1547 1552 1556 1560 1563
1475 1489 1506 1490 1475 1462 1465 1464 1465 1472 1482 1502 1520 1516 1483 1483 1483 1485 1483 1484 1485 1486 1486 1487 1491 1492 1495 1505 1506 1510 1516 1519 1520 1525 1526 1529 1533 1537 1540 1543 1548 1552 1555 1558
1473 1483 1496 1515 1499 1484 1483 1471 1465 1473 1498 1496 1495 1490 1487 1486 1493 1494 1491 1489 1487 1486 1486 1487 1488 1490 1494 1499 1500 1503 1510 1517 1516 1521 1524 1526 1528 1533 1537 1540 1544 1547 1550 1553
1476 1491 1484 1484 1480 1475 1474 1472 1469 1474 1474 1492 1488 1486 1493 1489 1484 1488 1495 1494 1489 1490 1489 1490 1492 1493 1496 1495 1497 1496 1499 1508 1511 1517 1520 1522 1526 1529 1534 1537 1540 1543 1547 1549
1473 1490 1484 1488 1475 1473 1476 1468 1467 1467 1468 1478 1479 1486 1486 1486 1485 1484 1489 1492 1493 1488 1492 1491 1492 1492 1495 1495 1492 1491 1488 1491 1478 1510 1519 1517 1523 1527 1531 1535 1537 1539 1542 1545
1474 1482 1488 1498 1478 1479 1489 1476 1473 1472 1470 1474 1486 1479 1481 1482 1482 1485 1485 1489 1490 1492 1490 1490 1490 1489 1490 1493 1493 1491 1491 1494 1489 1511 1510 1510 1517 1521 1526 1531 1535 1537 1539 1541
1471 1476 1483 1498 1488 1511 1477 1466 1467 1471 1471 1474 1475 1481 1482 1480 1480 1483 1486 1486 1486 1487 1489 1488 1487 1485 1482 1488 1490 1491 1491 1492 1491 1496 1496 1505 1509 1515 1520 1525 1530 1534 1536 1539
1461 1475 1489 1501 1502 1485 1471 1474 1475 1478 1482 1474 1474 1477 1478 1481 1485 1483 1480 1482 1485 1488 1487 1483 1480 1479 1474 1490 1493 1488 1487 1489 1486 1490 1485 1497 1501 1509 1515 1521 1525 1528 1530 1533
1457 1463 1482 1487 1497 1505 1474 1470 1471 1472 1490 1478 1474 1478 1480 1485 1489 1483 1483 1483 1484 1488 1487 1483 1481 1480 1479 1485 1490 1487 1485 1485 1479 1483 1489 1482 1494 1501 1508 1515 1519 1520 1523 1526
1469 1472 1483 1487 1491 1480 1465 1468 1470 1486 1487 1476 1476 1475 1476 1481 1481 1481 1482 1484 1483 1484 1487 1485 1483 1479 1477 1481 1489 1488 1486 1482 1485 1486 1485 1490 1492 1498 1507 1512 1513 1516 1520 1521
1472 1481 1482 1478 1483 1490 1467 1468 1474 1472 1470 1473 1475 1477 1474 1473 1476 1476 1478 1482 1484 1487 1490 1484 1482 1479 1475 1484 1484 1488 1491 1491 1489 1487 1488 1492 1492 1495 1505 1507 1516 1514 1521 1520
1473 1465 1475 1472 1476 1462 1462 1463 1465 1467 1470 1473 1475 1472 1474 1472 1476 1481 1479 1486 1487 1492 1489 1487 1484 1482 1483 1485 1488 1481 1492 1493 1492 1495 1495 1495 1497 1499 1508 1505 1515 1518 1520 1522
1459 1456 1464 1466 1464 1460 1461 1465 1466 1469 1472 1476 1481 1476 1471 1470 1480 1488 1487 1488 1490 1493 1491 1491 1488 1486 1483 1483 1485 1475 1489 1492 1494 1496 1499 1503 1505 1507 1507 1511 1517 1520 1523 1524
1461 1458 1460 1462 1458 1461 1464 1465 1466 1470 1473 1476 1481 1479 1478 1478 1486 1489 1491 1492 1492 1493 1496 1496 1493 1489 1486 1486 1485 1486 1488 1493 1496 1499 1503 1506 1507 1508 1508 1513 1518 1521 1523 1525
1457 1457 1463 1467 1458 1460 1463 1464 1467 1470 1469 1472 1474 1482 1483 1483 1485 1489 1491 1494 1495 1497 1500 1500 1499 1497 1494 1492 1491 1495 1492 1497 1499 1503 1507 1509 1510 1511 1514 1517 1519 1521 1525 1525